TimeEDT,TemperatureF,Dew PointF,Humidity,Sea Level PressureIn,VisibilityMPH,Wind Direction,Wind SpeedMPH,Gust SpeedMPH,PrecipitationIn,Events,Conditions,WindDirDegrees,DateUTC
12:54 AM,64.0,59.0,84,29.96,10.0,Calm,Calm,-,N/A,,Clear,0,2013-07-12 04:54:00
1:54 AM,64.9,59.0,81,29.98,10.0,Calm,Calm,-,N/A,,Clear,0,2013-07-12 05:54:00
2:54 AM,64.9,61.0,87,30.00,10.0,West,3.5,-,N/A,,Clear,260,2013-07-12 06:54:00
3:54 AM,64.0,60.1,87,29.99,10.0,West,4.6,-,N/A,,Clear,270,2013-07-12 07:54:00
4:54 AM,64.0,60.1,87,30.01,10.0,West,5.8,-,N/A,,Clear,270,2013-07-12 08:54:00
5:54 AM,64.0,60.1,87,30.02,10.0,West,4.6,-,N/A,,Partly Cloudy,280,2013-07-12 09:54:00
6:54 AM,64.0,60.1,87,30.03,10.0,WSW,4.6,-,N/A,,Clear,250,2013-07-12 10:54:00
7:54 AM,66.0,61.0,84,30.04,10.0,SW,3.5,-,N/A,,Clear,220,2013-07-12 11:54:00
8:54 AM,68.0,61.0,78,30.04,10.0,WSW,4.6,-,N/A,,Clear,250,2013-07-12 12:54:00
9:54 AM,70.0,60.1,71,30.06,10.0,WNW,3.5,-,N/A,,Clear,300,2013-07-12 13:54:00
10:54 AM,73.0,60.1,64,30.06,10.0,Variable,3.5,-,N/A,,Scattered Clouds,0,2013-07-12 14:54:00
11:54 AM,75.9,61.0,60,30.06,10.0,NNW,5.8,-,N/A,,Clear,330,2013-07-12 15:54:00
12:54 PM,77.0,61.0,58,30.06,10.0,NNE,8.1,-,N/A,,Scattered Clouds,20,2013-07-12 16:54:00
1:54 PM,78.1,62.1,58,30.06,10.0,NE,5.8,-,N/A,,Scattered Clouds,40,2013-07-12 17:54:00
2:54 PM,79.0,62.1,56,30.05,10.0,North,9.2,-,N/A,,Mostly Cloudy,10,2013-07-12 18:54:00
3:54 PM,79.0,63.0,58,30.04,10.0,ENE,6.9,-,N/A,,Scattered Clouds,60,2013-07-12 19:54:00
4:54 PM,78.1,62.1,58,30.04,10.0,North,8.1,-,N/A,,Scattered Clouds,10,2013-07-12 20:54:00
5:54 PM,78.1,61.0,56,30.04,10.0,North,9.2,-,N/A,,Scattered Clouds,10,2013-07-12 21:54:00
6:54 PM,77.0,60.1,56,30.04,10.0,Variable,3.5,-,N/A,,Scattered Clouds,0,2013-07-12 22:54:00
7:54 PM,75.0,62.1,64,30.05,10.0,Calm,Calm,-,N/A,,Overcast,0,2013-07-12 23:54:00
8:54 PM,72.0,66.0,81,30.06,10.0,Calm,Calm,-,0.00,Rain,Light Rain,0,2013-07-13 00:54:00
9:54 PM,70.0,66.0,87,30.09,10.0,SSE,3.5,-,0.00,Rain,Light Rain,160,2013-07-13 01:54:00
10:54 PM,68.0,66.0,93,30.11,10.0,SW,4.6,-,0.03,Rain,Light Rain,230,2013-07-13 02:54:00
11:54 PM,68.0,66.0,93,30.11,10.0,West,4.6,-,0.00,Rain,Light Rain,260,2013-07-13 03:54:00